Flag for U.S.A. Weather past 2 weeks in Toccoa, Georgia, U.S.A.

Now
34 °F

Overcast.


Feels Like: 27 °F
Forecast: 33 / 46 °F
Wind: 9 mph from East

Location: Clemson-Oconee County Airport

Current Time: Mar 6, 2015 at 10:00:44 AM

Latest Report: Mar 6, 2015 at 8:54 AM


Visibility: 10 mi

Pressure: 30.46 "Hg

Humidity: 52%

Dew point: 18 °F

Location of ToccoaLocation

Historic Weather in Toccoa — Graph

°F

Toccoa temperature yesterday

Maximum temperature yesterday: 68 °F (at 9:54 AM)
Minimum temperature yesterday: 40 °F (at 11:54 PM)
Average temperature yesterday: 58 °F

Past Weeks' High & Low Weather Summary

 TemperatureHumidityPressure
High77 °F (Mar 2, 2:54 PM)90% (Feb 23, 1:54 AM)30.69 "Hg (Feb 23, 1:54 AM)
Low14 °F (Feb 20, 2:54 AM)20% (Feb 19, 12:54 PM)29.70 "Hg (Feb 26, 2:54 AM)
Average44 °F66%30.20 "Hg
* Reported Feb 19 10:54 AM — Mar 6 8:54 AM, Toccoa, Weather by CustomWeather, © 2015

Note: Actual official high and low records may vary slightly from our data, if they occured in-between our weather recording intervals... More about our weather records

Advertising

Toccoa weather history for previous 24 hours

 ConditionsComfort  
Time TempWeatherWind HumidityBarometerVisibility
8:54 AM
Fri, Mar 6
34 °FOvercast.9 mph52%30.46 "Hg10 mi
7:54 AM33 °FPartly sunny.9 mph58%30.43 "Hg10 mi
6:54 AM33 °FPartly sunny.8 mph56%30.41 "Hg10 mi
5:54 AM35 °FOvercast.10 mph54%30.39 "Hg10 mi
4:54 AM36 °FOvercast.7 mph54%30.36 "Hg10 mi
3:54 AM37 °FOvercast.12 mph54%30.34 "Hg10 mi
2:54 AM38 °FOvercast.9 mph53%30.33 "Hg10 mi
1:54 AM38 °FOvercast.9 mph58%30.32 "Hg10 mi
12:54 AM39 °FOvercast.9 mph57%30.30 "Hg10 mi
11:54 PM
Thu, Mar 5
40 °FOvercast.8 mph63%30.28 "Hg10 mi
10:54 PM41 °FOvercast.7 mph67%30.26 "Hg10 mi
9:54 PM41 °FMostly cloudy.8 mph80%30.24 "Hg10 mi
8:54 PM44 °FMostly cloudy.8 mph76%30.21 "Hg10 mi
7:54 PM48 °FMostly cloudy.9 mph74%30.16 "Hg10 mi
6:54 PM51 °FOvercast.3 mph69%30.09 "Hg10 mi
5:54 PM51 °FOvercast.9 mph66%30.03 "Hg10 mi
4:54 PM57 °FOvercast.9 mph69%29.96 "Hg10 mi
3:54 PM58 °FLight rain. Overcast.14 mph78%29.96 "Hg10 mi
2:54 PM59 °FOvercast.9 mph72%29.90 "Hg10 mi
1:54 PM59 °FOvercast.10 mph78%29.91 "Hg10 mi
12:54 PM61 °FOvercast.14 mph78%29.93 "Hg10 mi
11:54 AM62 °FLight rain. Mostly cloudy.13 mph83%29.92 "Hg6 mi
10:54 AM65 °FLight rain. Mostly cloudy.20 mph85%29.88 "Hg5 mi
Weather by CustomWeather, © 2015

See weather overviewHow to use our weather pages